www.pogodaiklimat.ru

Погода и климат >> Архив погоды >> Бразилия >> Мату-Гросу-ду-Сул >> Понта-Поран


ПОГОДА в Понта-Поране

  • Прогноз погоды в Понта-Поране
  • Монитор погоды в Понта-Поране

АРХИВ ПОГОДЫ в Понта-Поране

Время (UTC), дата Ветер
(напр.,м/с)
 
Видим.   Явления Облачность Т
(С)
Тd
(С)
f
(%)
Тe
(С)
Тes
(С)
Комфортность P
(гПа)
Po
(гПа)
Тmin
(С)
Tmax
(С)
R
(мм)
R24
(мм)
S
(см)
19 18.08 СЗ 2
{5}
н/о н/о +29.8 +12.9 35 +31 +31 жарко 1008.7 935.5
20 18.08 СЗ 1
{5}
н/о н/о +29.0 +13.7 39 +31 +31 жарко 1009.4 935.9
21 18.08 СЗ 1
{3}
н/о н/о +28.1 +14.6 44 +31 +31 душно 1009.9 936.2
22 18.08 СЗ 1
{3}
н/о н/о +27.4 +14.8 46 +30 +30 жарко 1010.4 936.5
23 18.08 З 2
{4}
н/о н/о +26.2 +14.5 49 +29 +29 жарко 1011.5 937.2
00 19.08 З 1
{4}
н/о н/о +25.5 +14.8 52 +28 +28 жарко 1012.2 937.7
01 19.08 З 1
{3}
н/о н/о +24.3 +15.1 56 +27 +27 жарко 1012.9 938.1
02 19.08 З 2
{3}
н/о н/о +23.1 +15.6 63 +27 +27 душно 1013.7 938.5
03 19.08 З 1
{3}
н/о н/о +21.8 +16.3 71 +26 +26 душно 1014.5 938.9
04 19.08 ЮЗ 2
{3}
н/о н/о +20.4 +16.7 79 +24 +24 комфорт 1015.4 939.4
05 19.08 ЮЗ 1
{3}
н/о н/о +18.7 +16.4 86 +21 +21 комфорт 1015.6 939.2
06 19.08 ЮЗ 2
{3}
н/о н/о +17.7 +16.0 90 +18 +18 1015.6 938.9
07 19.08 ЮЗ 2
{4}
н/о н/о +16.9 +15.5 91 +17 +17 1015.6 938.7
08 19.08 ЮЗ 2
{4}
н/о н/о +16.5 +15.4 93 +17 +17 1015.8 938.8
09 19.08 ЮЗ 2
{4}
н/о н/о +16.1 +14.8 92 +16 +16 1016.4 939.3
10 19.08 ЮЗ 2
{3}
н/о н/о +15.5 +14.7 95 +15 +15 1017.3 939.9
11 19.08 ЮЗ 2
{4}
н/о н/о +15.0 +14.3 96 +15 +15 1017.7 940.2
12 19.08 ЮЗ 2
{4}
н/о н/о +14.6 +14.0 96 +14 +14 1018.1 940.4
13 19.08 ЮЗ 2
{4}
н/о н/о +15.9 +14.2 90 +16 +16 1018.1 940.8
14 19.08 ЮЗ 2
{4}
н/о н/о +17.5 +14.1 80 +18 +18 1018.2 941.3
15 19.08 З 2
{4}
н/о н/о +20.0 +14.8 72 +23 +23 комфорт 1017.2 941.0
16 19.08 З 2
{4}
н/о н/о +21.9 +15.3 66 +25 +25 комфорт 1015.8 940.2
17 19.08 З 2
{4}
н/о н/о +23.0 +15.3 62 +27 +27 душно 1015.1 939.8
18 19.08 З 2
{5}
н/о н/о +22.7 +15.3 63 +27 +27 душно 1014.9 939.5
19 19.08 З 2
{4}
н/о н/о +22.1 +14.8 63 +25 +25 комфорт 1014.7 939.2
20 19.08 З 3
{4}
н/о н/о +20.8 +13.9 65 +24 +24 комфорт 1015.7 939.8
21 19.08 З 2
{5}
н/о н/о +19.6 +13.6 68 +22 +22 комфорт 1016.4 940.1
22 19.08 З 2
{4}
н/о н/о +18.2 +13.0 72 +19 +19 1017.3 940.6
23 19.08 ЮЗ 2
{4}
н/о н/о +16.9 +12.6 76 +17 +17 1018.1 941.0
00 20.08 ЮЗ 2
{4}
н/о н/о +16.4 +12.3 77 +17 +17 1018.9 941.6
01 20.08 ЮЗ 1
{3}
н/о н/о +16.2 +11.8 75 +17 +17 1018.8 941.5
02 20.08 ЮЗ 2
{3}
н/о н/о +15.6 +11.6 77 +16 +16 1019.0 941.5
03 20.08 ЮЗ 1
{3}
н/о н/о +15.2 +11.6 79 +16 +16 1019.1 941.5
04 20.08 ЮЗ 1
{2}
н/о н/о +15.0 +11.2 78 +16 +16 1018.8 941.2
05 20.08 штиль 0
{1}
н/о н/о +14.8 +10.6 76 +15 +15 1018.7 941.0
06 20.08 штиль 0
{2}
н/о н/о +14.2 +10.6 79 +14 +14 1018.6 940.8
07 20.08 ЮЗ 2
{3}
н/о н/о +14.2 +10.5 78 +14 +14 1019.6 941.7
08 20.08 ЮЗ 1
{3}
н/о н/о +13.5 +10.0 79 +14 +14 1019.5 941.4
09 20.08 ЮЗ 1
{2}
н/о н/о +13.3 +9.8 79 +14 +14 1019.8 941.7
10 20.08 З 1
{2}
н/о н/о +14.3 +9.1 71 +15 +15 1020.3 942.4
11 20.08 ЮЗ 1
{2}
н/о н/о +15.4 +10.0 70 +17 +17 1020.8 943.1
12 20.08 ЮЗ 1
{1}
н/о н/о +17.7 +13.0 74 +19 +19 1021.0 943.9
13 20.08 штиль 0
{1}
н/о н/о +20.0 +13.7 67 +22 +22 комфорт 1021.0 944.5
14 20.08 З 1
{2}
н/о н/о +22.4 +12.9 55 +25 +25 комфорт 1020.4 944.5
15 20.08 ЮЗ 2
{3}
н/о н/о +22.6 +12.6 53 +25 +25 комфорт 1020.3 944.5
16 20.08 З 1
{3}
н/о н/о +23.9 +13.0 50 +26 +26 жарко 1019.2 943.8
17 20.08 ЮЗ 1
{3}
н/о н/о +24.5 +12.9 48 +26 +26 жарко 1018.6 943.4
18 20.08 ЮЗ 1
{4}
н/о н/о +25.2 +12.9 46 +27 +27 жарко 1017.8 942.8
19 20.08 З 1
{3}
н/о н/о +25.2 +13.3 48 +27 +27 жарко 1017.6 942.6
20 20.08 З 2
{3}
н/о н/о +25.0 +13.7 49 +27 +27 жарко 1017.8 942.8
21 20.08 З 1
{3}
н/о н/о +23.7 +13.8 54 +26 +26 жарко 1018.8 943.4
01 21.08 З 1
{3}
н/о н/о +18.7 +12.7 68 +21 +21 комфорт 1021.8 944.9
02 21.08 З 1
{2}
н/о н/о +18.4 +12.7 69 +20 +20 1021.4 944.5
03 21.08 З 1
{3}
н/о н/о +17.8 +12.6 72 +19 +19 1021.5 944.4
04 21.08 ЮЗ 1
{2}
н/о н/о +17.3 +12.9 75 +18 +18 1021.4 944.2
05 21.08 ЮЗ 1
{3}
н/о н/о +17.2 +12.9 76 +18 +18 1020.8 943.6
06 21.08 З 1
{3}
н/о н/о +16.7 +12.7 77 +18 +18 1020.4 943.1
07 21.08 З 1
{3}
н/о н/о +16.3 +12.3 77 +17 +17 1020.2 942.8
08 21.08 З 1
{3}
н/о н/о +15.2 +12.4 83 +16 +16 1020.9 943.2
09 21.08 З 1
{2}
н/о н/о +15.7 +12.4 81 +16 +16 1021.2 943.6
10 21.08 З 1
{2}
н/о н/о +15.3 +12.5 83 +16 +16 1022.0 944.2
11 21.08 З 1
{3}
н/о н/о +16.3 +13.0 81 +17 +17 1022.3 944.8
12 21.08 З 2
{4}
н/о н/о +18.9 +13.9 73 +21 +21 комфорт 1022.2 945.3
13 21.08 З 2
{4}
н/о н/о +20.9 +14.4 66 +24 +24 комфорт 1022.1 945.7
14 21.08 З 2
{4}
н/о н/о +23.1 +14.6 59 +27 +27 душно 1021.8 946.0
15 21.08 З 2
{4}
н/о н/о +24.7 +14.7 54 +27 +27 жарко 1021.0 945.7
16 21.08 З 1
{3}
н/о н/о +26.7 +14.2 46 +29 +29 жарко 1019.7 944.9
17 21.08 З 1
{3}
н/о н/о +26.2 +13.2 45 +28 +28 жарко 1018.9 944.1
18 21.08 ЮЗ 1
{3}
н/о н/о +26.5 +12.3 41 +28 +28 жарко 1017.9 943.2
19 21.08 З 1
{3}
н/о н/о +27.5 +11.8 38 +29 +29 жарко 1017.2 942.8
21 21.08 З 1
{3}
н/о н/о +25.7 +12.4 44 +27 +27 жарко 1017.5 942.7
22 21.08 З 1
{2}
н/о н/о +24.0 +12.6 49 +26 +26 жарко 1018.0 942.7
23 21.08 З 1
{2}
н/о н/о +23.0 +12.5 52 +26 +26 жарко 1018.4 942.8
00 22.08 З 1
{2}
н/о н/о +22.0 +12.0 53 +24 +24 комфорт 1019.0 943.1
01 22.08 З 1
{3}
н/о н/о +20.8 +12.2 58 +24 +24 комфорт 1019.2 943.0
02 22.08 З 1
{3}
н/о н/о +19.0 +12.4 66 +22 +22 комфорт 1019.7 943.0
03 22.08 З 1
{2}
н/о н/о +17.0 +12.4 74 +18 +18 1020.0 942.8
04 22.08 СЗ 1
{2}
н/о н/о +16.6 +12.5 77 +17 +17 1019.8 942.5
05 22.08 СЗ 1
{2}
н/о н/о +15.7 +12.3 80 +16 +16 1019.5 942.0
06 22.08 СЗ 2
{2}
н/о н/о +15.4 +12.2 81 +16 +16 1019.1 941.6
07 22.08 СЗ 1
{2}
н/о н/о +15.1 +12.1 82 +16 +16 1018.9 941.3
08 22.08 СЗ 2
{3}
н/о н/о +15.4 +12.3 82 +16 +16 1018.9 941.4
09 22.08 СЗ 1
{3}
н/о н/о +14.8 +12.0 83 +15 +15 1019.7 942.0
10 22.08 СЗ 2
{2}
н/о н/о +14.6 +12.0 84 +15 +15 1020.5 942.7
12 22.08 СЗ 2
{4}
н/о н/о +19.7 +13.4 67 +22 +22 комфорт 1020.7 944.1
13 22.08 СЗ 3
{5}
н/о н/о +21.9 +13.2 58 +25 +25 комфорт 1020.9 944.9
14 22.08 З 2
{5}
н/о н/о +24.3 +13.2 50 +26 +26 жарко 1020.3 944.9
15 22.08 СЗ 2
{5}
н/о н/о +25.8 +12.4 43 +27 +27 жарко 1019.6 944.6
16 22.08 З 2
{3}
н/о н/о +27.7 +12.8 40 +29 +29 жарко 1018.3 943.9
17 22.08 З 1
{3}
н/о н/о +29.0 +12.8 37 +30 +30 жарко 1017.3 943.3
18 22.08 З 1
{3}
н/о н/о +28.7 +11.4 34 +29 +29 жарко 1016.8 942.7
19 22.08 штиль 0
{2}
н/о н/о +28.8 +11.1 33 +29 +29 жарко 1016.4 942.4
20 22.08 ЮЗ 1
{2}
н/о н/о +28.1 +11.1 35 +29 +29 жарко 1016.5 942.3
21 22.08 штиль 0
{2}
н/о н/о +27.6 +12.1 38 +29 +29 жарко 1017.2 942.8
22 22.08 штиль 0
{1}
н/о н/о +26.5 +12.8 43 +28 +28 жарко 1017.9 943.2
23 22.08 З 2
{5}
н/о н/о +21.8 +15.9 69 +25 +25 комфорт 1020.4 944.4 0.8
00 23.08 ЮЗ 2
{5}
н/о н/о +21.0 +15.7 72 +25 +25 комфорт 1021.5 945.2 0.4
01 23.08 З 1
{5}
н/о н/о +18.2 +15.9 86 +20 +20 1023.1 946.0
02 23.08 З 2
{3}
н/о н/о +17.6 +16.0 90 +18 +18 1023.0 945.7
03 23.08 З 2
{4}
н/о н/о +17.6 +15.5 87 +18 +18 1023.1 945.8
04 23.08 З 2
{4}
н/о н/о +17.6 +14.9 84 +18 +18 1022.7 945.5
05 23.08 З 1
{3}
н/о н/о +17.1 +15.1 88 +18 +18 1022.8 945.4
06 23.08 З 1
{3}
н/о н/о +16.9 +13.0 78 +18 +18 1022.1 944.7
07 23.08 ЮЗ 1
{2}
н/о н/о +17.0 +11.4 70 +19 +19 1021.5 944.2
08 23.08 ЮЗ 1
{3}
н/о н/о +16.4 +9.7 65 +17 +17 1021.6 944.1
09 23.08 З 1
{2}
н/о н/о +15.7 +9.5 67 +17 +17 1022.0 944.3
10 23.08 З 1
{2}
н/о н/о +14.5 +10.8 78 +16 +16 1022.6 944.6
11 23.08 З 1
{2}
н/о н/о +16.1 +11.1 72 +18 +18 1022.4 944.8
12 23.08 З 1
{2}
н/о н/о +19.0 +11.8 63 +21 +21 комфорт 1022.1 945.3
13 23.08 З 1
{2}
н/о н/о +18.6 +12.5 68 +20 +20 1023.2 946.2
14 23.08 З 1
{2}
н/о н/о +20.7 +13.5 63 +24 +24 комфорт 1022.7 946.2
15 23.08 З 1
{3}
н/о н/о +23.2 +11.4 47 +25 +25 комфорт 1021.2 945.5
16 23.08 З 1
{3}
н/о н/о +24.1 +10.3 42 +25 +25 комфорт 1020.3 944.9
17 23.08 З 1
{3}
н/о н/о +25.4 +11.2 41 +27 +27 жарко 1019.4 944.3
18 23.08 З 1
{4}
н/о н/о +25.7 +8.3 33 +26 +26 жарко 1018.4 943.5
19 23.08 З 1
{3}
н/о н/о +25.8 +7.7 32 +26 +26 жарко 1018.0 943.1
20 23.08 ЮЗ 2
{3}
н/о н/о +25.0 +6.3 30 +25 +25 комфорт 1017.9 942.9
21 23.08 ЮЗ 1
{3}
н/о н/о +24.0 +5.0 29 +24 +24 комфорт 1018.1 942.8
22 23.08 З 1
{2}
н/о н/о +21.1 +7.8 42 +22 +22 комфорт 1019.0 942.9
23 23.08 З 1
{3}
н/о н/о +20.2 +8.0 45 +22 +22 комфорт 1019.2 942.9
00 24.08 З 1
{2}
н/о н/о +19.2 +7.3 46 +21 +21 комфорт 1019.9 943.3
01 24.08 ЮЗ 2
{3}
н/о н/о +18.8 +7.6 48 +20 +20 1020.2 943.5
02 24.08 ЮЗ 2
{3}
н/о н/о +18.1 +6.6 47 +19 +19 1020.3 943.4
03 24.08 З 1
{3}
н/о н/о +17.1 +6.5 50 +18 +18 1020.4 943.2
04 24.08 З 2
{3}
н/о н/о +16.7 +6.8 52 +17 +17 1020.0 942.7
05 24.08 З 1
{3}
н/о н/о +14.3 +7.2 62 +16 +16 1019.9 942.0
06 24.08 З 1
{3}
н/о н/о +14.6 +7.1 61 +15 +15 1019.5 941.7
07 24.08 З 2
{3}
н/о н/о +14.4 +7.2 62 +14 +14 1019.2 941.4
08 24.08 СЗ 1
{3}
н/о н/о +12.0 +7.4 73 +12 +12 1020.1 941.6
09 24.08 СЗ 1
{2}
н/о н/о +12.0 +7.2 72 +12 +12 1020.6 942.1
10 24.08 СЗ 1
{2}
н/о н/о +12.3 +7.3 72 +12 +12 1021.3 942.8
11 24.08 З 1
{2}
н/о н/о +14.0 +8.0 67 +14 +14 1021.7 943.6
12 24.08 СЗ 2
{3}
н/о н/о +17.3 +9.1 59 +18 +18 1021.3 944.1
13 24.08 З 3
{5}
н/о н/о +20.1 +8.8 48 +22 +22 комфорт 1021.1 944.6
14 24.08 З 3
{5}
н/о н/о +23.6 +9.8 42 +25 +25 комфорт 1020.0 944.5
15 24.08 З 3
{6}
н/о н/о +24.8 +8.0 34 +25 +25 комфорт 1019.0 943.8
16 24.08 З 2
{5}
н/о н/о +26.9 +8.8 32 +27 +27 жарко 1017.7 943.1
17 24.08 З 2
{4}
н/о н/о +27.3 +7.5 29 +27 +27 жарко 1016.6 942.2
18 24.08 З 2
{4}
н/о н/о +28.8 +7.7 27 +28 +28 жарко 1015.2 941.3
19 24.08 З 2
{4}
н/о н/о +28.5 +6.4 25 +28 +28 жарко 1014.7 940.7
20 24.08 З 1
{3}
н/о н/о +28.4 +5.6 23 +27 +27 жарко 1014.6 940.6
21 24.08 З 1
{3}
н/о н/о +26.4 +5.0 25 +26 +26 жарко 1015.3 940.8
22 24.08 З 2
{3}
н/о н/о +23.9 +4.5 28 +24 +24 комфорт 1016.1 940.9
23 24.08 З 2
{3}
н/о н/о +22.5 +4.4 31 +23 +23 комфорт 1016.8 941.2
00 25.08 З 2
{4}
н/о н/о +20.5 +5.4 37 +22 +22 комфорт 1018.0 941.8
01 25.08 З 3
{5}
н/о н/о +19.9 +7.6 45 +21 +21 комфорт 1018.8 942.4
02 25.08 З 2
{5}
н/о н/о +17.8 +8.7 55 +18 +18 1019.8 942.8
03 25.08 СЗ 2
{4}
н/о н/о +16.2 +9.1 63 +16 +16 1020.2 942.8
04 25.08 СЗ 2
{3}
н/о н/о +15.7 +9.2 65 +16 +16 1020.1 942.6
05 25.08 СЗ 3
{4}
н/о н/о +15.6 +9.2 66 +15 +15 1019.9 942.4
06 25.08 СЗ 3
{5}
н/о н/о +15.3 +9.1 66 +15 +15 1019.8 942.2
07 25.08 СЗ 3
{5}
н/о н/о +14.5 +9.3 71 +14 +14 1019.9 942.1
08 25.08 СЗ 3
{5}
н/о н/о +14.0 +9.3 73 +13 +13 1020.4 942.4
09 25.08 СЗ 3
{4}
н/о н/о +13.2 +9.2 77 +12 +12 1021.3 943.0
10 25.08 СЗ 3
{5}
н/о н/о +12.7 +9.2 79 +12 +12 1022.3 943.8
11 25.08 СЗ 3
{5}
н/о н/о +13.2 +9.5 78 +12 +12 1022.8 944.4
12 25.08 З 4
{6}
н/о н/о +15.4 +9.8 69 +15 +15 1022.1 944.3
13 25.08 З 4
{6}
н/о н/о +17.8 +10.2 61 +18 +18 1021.4 944.3
14 25.08 СЗ 4
{7}
н/о н/о +19.9 +9.7 52 +21 +21 комфорт 1020.6 944.1
15 25.08 З 4
{7}
н/о н/о +22.3 +10.1 46 +24 +24 комфорт 1019.2 943.4
16 25.08 З 3
{7}
н/о н/о +24.7 +9.7 39 +26 +26 жарко 1017.2 942.1
17 25.08 З 3
{6}
н/о н/о +26.0 +9.1 34 +26 +26 жарко 1015.6 941.0
18 25.08 З 3
{6}
н/о н/о +26.2 +8.9 34 +27 +27 жарко 1014.8 940.3

 

Местоположение метеостанции Понта-Поран (Мату-Гросу-ду-Сул, Бразилия): широта -22.53 долгота -55.53 высота над уровнем моря 652 м.

В архиве по умолчанию представлена погода в Понта-Поране за последнюю неделю. Архивные данные за месяц целиком и за предыдущие месяцы, начиная с января 2011 года, Вы можете получить, выбрав интересующий диапазон дат из раскрывающегося списка и нажав кнопку "Ввод!".


*Определитесь, кто Вы:
робот инопланетянин человек

Внимание! Время в таблицах - всемирное. Для получения местного времени необходимо прибавить поправку, которая равна -3 ч.

Смотрите также архив погоды в соседних городах и на ближайших метеорологических станциях:

Погода в Понта-Пора (Мату-Гросу-ду-Сул, Бразилия) (17 км)
Погода в Педро-Хуан-Кабальеро (Парагвай) (21 км)
Погода в Амамбаи (Мату-Гросу-ду-Сул, Бразилия) (56 км)
Погода в Дорадусе (Мату-Гросу-ду-Сул, Бразилия) (73 км)
Погода в Жути (Мату-Гросу-ду-Сул, Бразилия) (102 км)
Погода в Маракажу (Мату-Гросу-ду-Сул, Бразилия) (107 км)
Погода в Бела-Виста (Мату-Гросу-ду-Сул, Бразилия) (114 км)
Погода в Рио-Брилханте (Мату-Гросу-ду-Сул, Бразилия) (133 км)
Погода в Жардиме (Мату-Гросу-ду-Сул, Бразилия) (133 км)
Погода в Ивиньеме (Мату-Гросу-ду-Сул, Бразилия) (166 км)

Пояснения к столбцам:

Ветер - указаны скорость ветра в м/с - средняя за 10 мин, порывы в срок и между сроками (в фигурных скобках) и направление, откуда дует ветер: С - северный, СВ - северо-восточный, В - восточный, ЮВ - юго-восточный, Ю - южный, ЮЗ - юго-западный, З - западный, СЗ - северо-западный.
Видимость - горизонтальная дальность видимости в метрах или километрах. При видимости от 1 до 10 км при отсутствии осадков обычно наблюдается дымка, при ухудшении видимости до 1 км и менее - туман. В сухую погоду видимость может ухудшаться дымом, пылью или мглою.
Явления - указаны атмосферные явления, наблюдавшиеся в срок или в последний час перед сроком; фигурными скобками обозначены явления, наблюдавшиеся между сроками (за 1-3 часа до срока); квадратными скобками обозначены град или гололедные отложения с указанием их диаметра в мм.
Облачность - указаны через наклонную черту общая и нижняя облачность в баллах и высота нижней границы облаков в метрах; квадратными скобками обозначены формы облаков: Ci - перистые, Cs - перисто-слоистые, Cc - перисто-кучевые, Ac - высококучевые, As - высокослоистые, Sc - слоисто-кучевые, Ns - слоисто-дождевые, Cu - кучевые, Cb - кучево-дождевые. Подробнее классификацию облаков см. в Атласе облаков (PDF).
T - Температура воздуха - температура, измеренная на высоте 2 м над землей.
Td - Температура точки росы - температура, при понижении до которой содержащийся в воздухе водяной пар достигнет насыщения.
f - Относительная влажность воздуха - влажноcть воздуха, измеренная на высоте 2 м над землей.
Te - Эффективная температура - температура, которую ощущает одетый по сезону человек в тени. Характеристика душности погоды. При расчете учитывается влияние влажности воздуха и скорости ветра на теплоощущения человека.
Tes - Эффективная температура на солнце - температура, которую ощущает человек, с поправкой на солнечный нагрев. Характеристика знойности погоды. Зависит от высоты солнца над горизонтом, облачности и скорости ветра. Ночью, в пасмурную погоду, а также при ветре 12 м/с и более поправка равна нулю.
P - Атмосферное давление - приведенное к уровню моря атмосферное давление.
Po - Атмосферное давление - измеренное на уровне метеостанции атмосферное давление.
Tmin - Минимальная температура - минимум температуры воздуха на высоте 2 м над землей.
Tmax - Максимальная температура - максимум температуры воздуха на высоте 2 м над землей.
R - Количество осадков - Количество выпавших осадков за период времени, мм. При наведении курсора мыши на число - период времени, за который выпало указанное количество осадков.
R24 - Количество осадков - Количество выпавших осадков за 24 часа, мм.
S - Снежный покров - Высота снежного покрова, см. При наведении курсора мыши на число - состояние снежного покрова и степень покрытия местности в баллах.